Lapse_Rate
7.8 7.5 7.4 7.5 7.4 7.5 7.6 7.6 7.5 7.2 7.3 7.0 7.1 6.9 7.0 6.9 6.7 6.7 6.8 6.9 6.8 6.7 6.4 6.1 6.4 6.6 6.3 6.2 6.0 5.6 5.2 4.8 5.1 5.3 5.0 5.1 5.1 4.7 4.9 4.7 4.5 4.5 4.4
7.8 7.4 7.2 7.2 7.2 7.4 7.6 7.8 7.6 7.6 7.4 7.2 7.4 7.2 7.3 7.1 7.0 6.7 6.6 6.5 6.3 6.5 6.4 5.9 6.0 6.2 6.1 6.0 6.2 6.0 5.9 5.7 5.5 5.6 5.6 5.7 5.7 5.4 5.4 4.9 4.9 5.2 4.4
7.8 7.5 7.6 7.5 7.6 7.7 7.8 7.7 7.7 7.7 7.7 7.6 7.4 7.6 7.5 7.4 7.3 7.2 7.0 6.7 6.3 6.2 5.9 5.8 6.2 6.2 6.1 6.2 6.3 6.1 5.9 5.9 5.6 5.5 5.5 5.8 6.2 6.0 5.5 5.6 5.5 5.2 5.1
8.0 8.0 7.8 7.7 7.9 8.0 7.9 8.0 7.9 7.9 7.9 7.8 7.8 7.6 7.6 7.5 7.4 7.3 7.0 6.7 6.5 6.0 5.6 5.7 6.2 6.1 5.8 5.9 5.9 5.8 5.6 5.7 5.8 5.6 5.4 5.3 5.7 5.7 5.7 5.3 5.2 5.2 5.0
8.1 8.0 7.8 7.9 8.0 8.0 8.1 8.1 8.1 8.1 7.9 7.8 7.8 7.8 7.6 7.2 7.4 7.1 7.0 6.7 6.3 5.7 5.7 5.5 5.7 5.9 5.8 5.8 5.7 5.6 5.6 5.8 5.8 5.9 5.7 5.4 5.5 5.4 5.0 5.0 5.0 4.9 4.8
8.2 8.1 8.1 8.0 8.3 8.2 8.2 8.2 8.2 8.1 8.0 8.0 8.0 8.1 7.8 7.7 7.6 7.5 7.1 6.6 6.1 5.9 5.8 5.4 5.4 5.8 5.6 5.4 5.2 5.0 5.4 5.3 5.1 5.3 5.1 5.3 5.1 5.4 5.1 5.4 5.3 5.6 6.0
8.4 8.4 8.2 8.3 8.7 8.5 8.4 8.4 8.1 8.0 8.1 8.1 8.0 8.1 8.0 7.8 7.6 7.6 7.2 6.7 5.8 6.1 5.7 5.6 5.3 5.6 5.4 5.4 5.4 5.6 5.4 5.5 5.2 5.3 5.4 5.5 5.7 5.7 5.5 5.6 5.8 5.9 6.2
8.5 8.4 8.3 8.4 8.8 8.7 8.4 8.3 8.0 8.2 8.1 8.1 8.2 8.3 8.0 7.9 7.7 7.5 7.2 6.4 5.5 5.8 5.7 5.7 5.5 5.7 5.5 5.4 5.3 5.3 5.4 5.7 5.6 5.5 5.4 5.7 6.0 5.9 5.7 5.7 6.1 6.1 6.6
8.9 8.6 8.5 8.4 8.5 8.5 8.4 8.1 8.0 8.1 8.2 8.2 7.9 8.2 8.2 7.7 7.2 7.2 6.7 6.2 6.2 6.3 6.0 5.5 5.5 5.6 5.4 5.5 5.3 5.5 5.6 5.5 5.2 5.5 5.6 5.8 6.0 5.9 5.8 5.7 6.0 6.3 6.7
9.1 9.0 8.6 8.4 8.3 8.4 8.1 7.9 8.1 7.9 7.9 7.9 7.9 7.7 7.5 7.3 7.0 6.6 6.4 6.3 6.3 6.1 5.9 5.9 5.8 5.5 5.4 5.2 5.3 5.3 5.5 5.6 5.7 5.7 5.8 5.9 5.8 5.9 5.9 6.2 6.5 6.8 6.8
9.1 9.1 8.7 8.5 8.3 8.1 8.2 8.1 7.9 7.9 7.9 8.0 7.8 7.7 7.5 7.4 6.8 6.4 6.2 6.5 6.4 6.2 5.9 6.0 5.1 5.6 5.4 5.6 5.6 5.7 5.6 5.6 5.9 6.1 6.2 6.0 6.0 6.3 5.6 5.5 6.5 6.5 6.4
8.9 8.7 8.4 8.3 8.1 8.3 8.1 8.0 8.0 8.0 8.1 7.9 7.7 7.6 7.4 7.0 6.5 6.3 6.2 6.3 6.0 5.8 5.6 5.8 5.8 5.5 5.7 5.7 5.9 5.8 5.7 6.1 6.1 6.2 6.2 6.4 6.2 5.9 6.2 6.4 6.4 6.4 6.3
8.7 8.3 8.2 8.2 8.1 8.0 8.0 8.1 8.3 8.2 8.0 7.7 7.4 7.3 7.1 6.7 6.4 6.2 6.1 6.1 6.1 6.1 5.7 5.7 5.7 5.6 5.6 5.8 5.8 5.7 6.0 6.2 6.4 6.5 6.5 6.6 6.4 6.4 6.4 6.5 6.7 6.8 6.9
8.3 8.0 7.8 7.7 7.9 8.0 8.1 8.3 8.1 7.9 7.6 7.2 7.1 6.9 6.6 6.5 6.2 6.1 6.2 6.2 6.1 6.3 5.7 5.7 5.7 5.8 6.1 6.2 5.9 6.0 6.2 6.6 6.9 6.3 6.1 6.2 6.5 6.6 6.6 6.6 6.7 6.7 6.7
7.6 7.6 7.7 7.8 7.9 8.0 8.0 7.7 7.7 7.4 7.0 6.8 6.5 6.5 6.3 6.1 6.0 6.1 6.1 6.0 6.0 6.0 5.8 6.1 6.1 6.2 6.3 6.4 6.1 5.8 6.2 6.2 6.4 6.6 6.3 6.3 6.4 6.6 6.8 6.8 6.7 6.6 6.7
7.5 7.6 7.7 7.7 7.7 7.8 7.7 7.4 6.9 6.7 6.6 6.4 6.4 6.2 5.9 6.2 6.2 6.1 5.8 5.9 6.1 6.2 6.3 6.1 5.8 5.7 5.5 5.5 5.5 5.4 5.0 4.9 5.3 5.9 6.2 6.5 6.6 6.8 6.9 6.9 6.8 6.6 6.6
7.6 7.9 7.9 7.6 7.6 7.4 7.1 6.9 6.5 6.3 6.5 6.3 6.3 6.0 5.9 6.0 5.9 6.0 6.1 6.2 6.2 6.2 6.0 6.1 5.9 5.8 5.9 6.0 6.1 5.9 5.8 5.8 6.1 6.3 6.4 6.6 6.8 6.8 6.8 6.7 6.6 6.6 6.5
8.0 7.8 7.8 7.7 6.8 6.4 7.0 6.8 6.5 6.4 6.1 6.3 6.2 6.0 6.0 6.0 5.9 6.2 6.2 6.2 6.2 6.1 6.0 6.2 6.2 5.9 5.9 6.1 6.3 6.1 6.2 6.4 6.5 6.7 6.8 6.8 6.8 6.8 6.7 6.6 6.5 6.5 6.4
7.6 7.3 7.7 7.3 5.7 5.3 5.6 6.0 5.9 5.8 5.6 6.2 5.9 5.9 6.1 5.9 6.1 6.1 6.1 6.1 6.1 6.0 5.6 5.4 5.7 6.1 6.1 6.1 6.4 6.5 6.7 6.7 6.8 6.8 6.9 7.0 7.0 6.9 6.7 6.6 6.4 6.3 6.1
7.2 7.3 6.8 6.7 5.7 5.9 5.8 6.0 6.0 5.3 5.2 5.2 5.6 6.2 6.1 6.2 5.9 6.0 6.1 6.2 6.1 6.0 5.8 5.9 5.8 6.0 6.1 6.3 6.3 6.4 6.5 6.7 6.8 6.9 7.1 7.0 6.9 6.8 6.7 6.6 6.3 6.2 6.1
7.0 6.5 6.5 5.9 5.7 5.6 5.8 6.0 5.2 5.3 5.2 5.2 5.3 5.7 6.3 5.8 5.7 5.8 6.3 6.8 6.5 6.2 5.9 6.2 6.1 5.9 6.2 6.4 6.5 6.2 6.3 6.6 6.7 6.9 7.0 6.9 6.8 6.6 6.6 6.5 6.3 6.2 6.0
5.6 6.3 6.5 6.0 5.5 5.2 5.7 5.4 5.4 5.6 5.2 5.2 5.5 5.4 5.8 6.0 5.8 5.5 5.5 5.6 5.7 6.3 6.0 6.0 6.1 5.6 5.8 6.3 6.2 6.2 6.4 6.5 6.7 6.8 6.8 6.7 6.6 6.6 6.6 6.4 6.4 6.2 6.2
5.9 5.7 5.6 5.6 5.5 5.5 5.4 5.3 5.3 5.7 5.7 5.8 5.7 5.7 5.8 5.6 5.6 5.5 5.6 6.0 5.8 5.8 5.9 5.6 5.9 5.9 5.9 6.3 6.3 6.3 6.3 6.2 6.5 6.6 6.6 6.5 6.6 6.7 6.5 6.4 6.3 6.2 6.2
5.7 5.5 5.2 5.6 5.8 5.7 5.6 5.6 5.7 5.8 5.8 6.0 5.8 5.6 5.7 5.9 5.8 5.8 5.8 5.9 6.1 6.3 6.1 5.9 6.2 6.1 5.9 6.1 6.4 6.6 6.3 6.2 6.2 6.3 6.4 6.4 6.4 6.3 6.3 6.3 6.2 6.0 6.2
5.8 5.4 5.7 5.1 5.1 5.7 5.5 5.2 5.7 5.9 5.7 5.8 5.4 5.5 5.6 5.9 5.7 5.8 6.3 6.1 6.1 5.7 5.7 6.1 6.1 6.2 6.3 6.0 6.3 6.4 6.3 6.3 6.3 6.2 6.2 6.3 6.3 6.4 6.4 6.3 6.3 6.2 6.3
5.2 5.2 5.6 5.5 5.4 5.3 5.7 5.5 5.4 5.2 5.4 5.6 5.5 5.6 5.5 5.4 5.3 5.5 6.0 6.0 5.8 6.0 6.3 6.4 6.5 6.6 6.2 6.3 6.1 6.1 6.3 6.3 6.2 6.2 6.2 6.1 6.2 6.5 6.5 6.4 6.3 6.3 6.3
Wind_Speed
19 18 18 16 17 16 12 12 12 10 10 11 12 13 12 10 9 8 7 9 8 8 6 4 4 5 2 4 2 1 2 1 1 3 2 3 3 4 7 13 13 16 17
19 18 19 18 17 17 16 13 13 12 10 10 12 12 13 11 11 11 11 8 8 10 9 7 6 4 6 5 3 5 3 3 2 4 3 4 6 4 4 5 7 15 14
19 20 20 18 18 18 18 17 12 13 12 14 13 14 14 14 13 13 13 11 9 8 7 7 7 7 5 4 4 3 3 2 2 3 4 3 4 3 4 5 5 6 11
21 21 20 20 19 18 17 16 17 15 15 14 14 14 14 14 13 13 12 11 8 7 7 8 7 7 6 7 5 5 4 3 3 3 8 4 3 5 4 3 4 2 4
21 21 20 19 18 17 16 16 16 16 14 14 13 12 13 12 10 12 11 10 9 8 7 7 7 7 10 9 5 6 6 3 3 4 5 7 7 4 4 4 4 4 6
19 21 19 18 18 18 16 15 15 14 14 14 14 14 13 9 12 14 12 10 10 8 8 7 6 11 13 6 6 10 6 5 6 4 6 9 6 4 2 5 5 6 8
16 18 18 17 17 16 15 14 13 14 13 14 13 12 9 10 7 7 13 8 6 9 8 6 6 6 8 7 11 11 11 13 11 6 9 8 8 4 4 6 6 5 7
13 16 16 15 16 15 14 14 12 10 12 9 8 7 7 7 6 7 9 7 7 8 8 8 7 7 6 7 6 6 6 7 8 7 8 11 9 6 5 4 6 7 7
18 14 16 14 15 15 14 12 10 8 7 6 4 7 7 7 9 12 10 9 10 9 6 7 8 8 10 6 3 6 8 8 9 14 19 15 11 11 12 3 7 6 8
15 14 11 11 14 13 12 10 8 7 5 6 6 7 9 9 11 14 13 9 10 7 7 8 9 9 3 5 6 7 6 6 5 5 2 4 9 12 19 10 10 8 8
11 11 10 10 10 10 9 7 6 6 6 6 7 8 10 9 7 11 15 9 6 4 7 6 7 9 7 7 4 4 2 4 6 5 5 6 8 9 10 8 6 5 6
11 11 10 9 8 8 9 7 7 7 7 6 5 4 4 6 1 10 10 12 3 2 4 4 4 9 10 7 4 2 1 3 4 5 6 7 7 3 3 3 4 6 8
12 12 11 10 7 10 10 8 6 7 6 6 6 6 5 4 4 7 8 7 5 2 3 2 11 10 7 5 9 9 6 4 5 6 6 3 3 4 5 5 6 9 8
14 12 11 10 10 8 6 7 7 6 5 5 4 3 3 5 6 5 5 6 6 5 7 7 8 8 9 6 3 6 5 6 5 4 3 4 3 3 4 3 3 4 4
12 11 10 9 9 7 7 3 4 4 1 4 5 5 5 6 6 8 4 5 6 7 8 5 5 5 7 7 6 7 6 5 5 5 1 3 3 4 3 3 3 5 6
12 9 8 8 7 7 7 6 14 10 8 10 8 7 4 8 14 13 11 10 10 7 4 4 4 6 5 0 7 6 4 7 3 3 3 3 4 3 4 4 4 4 4
12 11 9 11 10 9 8 8 7 5 11 13 11 9 8 10 10 13 11 10 7 4 1 3 6 2 3 3 3 3 3 3 3 0 2 3 3 4 5 3 5 4 4
11 14 11 10 10 10 10 9 8 8 6 5 10 8 10 9 7 8 10 8 2 1 3 5 1 3 3 3 3 3 3 4 4 4 4 4 5 3 3 4 5 4 5
5 5 5 4 9 11 7 7 9 10 9 9 7 5 7 8 9 7 3 2 4 4 6 2 3 3 3 3 3 3 3 2 1 2 4 5 3 3 4 5 5 8 8
4 2 5 6 5 5 6 5 6 6 11 9 8 9 8 6 5 5 4 4 5 4 2 3 4 4 4 3 3 3 2 3 3 3 2 3 4 3 5 5 5 7 6
5 4 4 5 6 6 6 6 6 6 10 9 8 10 14 8 8 8 8 7 5 3 1 3 4 3 2 3 2 2 3 4 3 2 3 3 4 4 5 4 7 7 6
7 6 4 4 6 5 6 4 3 2 6 8 7 10 18 7 7 4 6 5 4 2 2 4 2 2 1 3 4 3 3 4 3 3 4 4 4 5 4 6 7 6 6
4 6 6 3 5 8 1 4 4 5 8 3 7 9 8 5 5 1 4 5 4 4 3 3 3 1 2 4 4 1 4 3 4 4 3 4 5 4 4 6 7 5 7
4 7 7 7 5 5 2 5 5 2 9 7 8 8 9 5 2 4 3 4 4 3 4 4 3 2 4 3 1 3 7 10 9 8 6 5 7 6 5 6 5 7 8
3 6 4 3 6 3 3 8 10 10 4 5 8 7 8 6 5 4 4 5 4 3 4 4 4 4 4 4 6 11 12 13 10 4 5 5 8 11 4 5 7 7 7
5 4 1 3 2 3 3 4 1 4 4 4 3 4 4 5 5 6 7 6 6 7 7 5 5 8 6 8 15 17 13 11 7 3 4 5 7 7 4 6 8 6 6
Wind_Direction
189 190 195 198 198 204 214 200 195 206 187 169 176 175 182 190 183 182 209 207 199 189 175 200 254 193 219 279 344 320 291 322 13 304 323 308 301 271 270 268 253 243 245
187 191 196 199 199 202 211 217 199 195 184 180 177 182 188 188 184 186 208 218 195 195 194 186 196 214 217 249 275 276 280 293 228 262 252 267 243 251 247 264 251 248 248
189 194 196 199 199 205 206 209 207 199 197 190 185 190 192 191 192 192 199 218 201 200 198 186 190 211 213 209 214 257 270 281 320 293 278 256 235 242 268 256 267 261 270
190 196 199 199 202 205 204 203 208 203 199 198 199 195 199 198 195 198 203 213 212 211 204 188 183 197 198 211 222 235 245 254 270 279 275 269 261 266 246 287 304 280 256
192 196 199 202 203 204 205 204 206 208 203 206 199 202 203 202 204 195 199 209 208 223 203 199 192 206 203 207 193 226 225 216 223 251 281 295 293 310 317 301 288 295 290
193 196 197 198 200 202 202 206 200 208 201 201 200 204 198 198 201 193 206 203 207 208 219 207 204 201 227 215 237 238 212 211 231 237 258 264 274 278 306 299 307 299 292
192 192 196 193 195 197 199 197 205 199 201 199 204 205 189 205 143 185 194 204 202 219 215 194 211 224 203 204 220 216 217 216 221 225 244 256 266 260 276 279 280 304 289
185 189 193 191 189 189 192 198 195 189 195 193 193 178 183 190 210 208 232 223 229 227 210 200 195 230 223 214 209 226 234 242 231 233 232 249 253 251 235 237 261 264 268
189 184 191 178 176 179 185 182 183 172 178 186 168 158 175 210 222 207 199 221 226 236 216 202 203 218 227 233 238 250 268 261 257 244 225 233 230 238 243 255 260 264 273
187 184 160 159 165 169 171 159 150 156 173 166 154 171 184 219 207 208 198 217 221 219 231 227 207 228 266 217 223 252 258 259 266 298 296 276 262 259 252 236 249 251 265
161 159 154 153 153 154 144 132 134 166 171 165 169 187 201 208 215 203 201 213 231 231 239 237 229 213 187 166 216 262 299 357 324 306 293 283 268 257 251 250 221 234 271
142 143 136 138 148 132 128 122 147 149 146 159 167 181 195 201 227 195 192 212 133 259 262 193 217 140 142 168 192 162 120 304 277 277 272 271 274 310 3 6 269 254 266
132 129 128 129 104 123 133 142 144 154 163 168 183 196 197 173 145 138 162 193 224 225 283 142 131 136 151 184 215 207 207 241 254 264 271 291 313 318 325 298 278 272 263
120 112 113 106 109 115 117 142 143 156 171 194 193 162 184 153 163 170 176 171 151 134 124 140 166 169 185 221 167 201 223 241 239 252 283 275 286 337 319 307 316 317 312
108 111 111 117 121 107 64 60 135 74 336 194 189 168 167 162 167 143 160 168 167 186 173 149 190 195 214 212 208 202 210 228 240 244 307 326 340 305 310 315 317 300 285
132 133 136 134 127 126 124 100 42 51 42 39 37 111 73 79 121 124 125 130 117 135 193 205 232 243 227 215 190 207 204 227 238 50 16 320 284 304 294 296 280 279 293
141 154 156 151 157 159 159 151 137 68 71 57 47 60 115 137 125 127 124 102 89 117 226 255 258 253 56 39 19 12 2 52 142 303 278 303 312 291 295 300 289 292 293
150 162 168 170 170 173 169 174 163 167 157 120 44 81 79 110 119 130 146 142 147 193 243 243 254 51 42 64 56 5 12 25 21 21 12 328 290 292 308 298 296 301 291
139 163 155 190 156 170 175 173 164 175 165 131 135 125 115 107 94 85 46 270 264 241 203 215 116 87 41 32 63 52 60 2 14 291 272 265 310 323 312 300 307 300 294
138 247 217 135 129 128 140 183 205 156 138 152 167 160 156 146 166 179 200 215 248 278 351 81 74 79 60 46 30 31 319 275 284 248 255 349 303 330 305 306 308 301 298
150 143 15 139 143 166 171 203 213 197 154 164 168 164 165 176 181 190 193 203 210 224 297 116 71 79 113 169 180 219 253 278 282 0 16 346 340 302 293 326 305 308 314
153 167 179 235 155 171 174 189 191 164 138 177 164 159 163 196 207 191 169 169 162 155 117 127 113 351 330 90 68 11 331 288 280 58 34 343 322 308 351 315 309 318 331
134 170 171 102 85 106 17 153 87 81 102 167 135 147 179 210 247 281 137 124 129 139 147 141 124 214 289 122 105 351 293 314 59 52 8 336 312 328 326 312 312 342 322
98 44 65 84 69 47 22 81 21 180 157 150 154 163 187 183 80 71 148 153 147 190 152 127 139 230 73 67 69 211 37 57 54 53 19 321 310 322 320 304 332 329 311
64 124 75 291 141 205 232 188 191 222 180 185 174 165 184 180 184 164 132 137 136 149 188 153 168 186 174 138 99 93 87 75 70 35 329 329 303 299 324 343 327 318 323
135 120 315 84 29 226 155 289 35 152 185 234 183 215 189 165 194 191 188 187 191 194 194 183 207 177 156 157 121 132 121 108 96 51 335 293 287 303 25 318 320 317 343